Location: Bogis-Bossey
(46.3500°N, 6.1667°E)
Time: 17:44:35
(UTC+00:00)

Cosmos 1302 Rocket - Pass Details

Date: 17 August 2022
Orbit: 755 x 776 km, 74.0° (Epoch: 30 September)

Event Time Altitude Azimuth Distance (km) Brightness Sun altitude
Rises 23:06:52 0° 338° (NNW) 3,255 8.4 -30.0°
Reaches altitude 10° 23:09:15 10° 339° (NNW) 2,326 7.4 -30.1°
Enters shadow 23:13:34 60° 350° (N) 886 4.4 -30.2°
